This demonstration page uses our WeatherBlox Daily Observations layout. Learn more.

38.89511, -77.03637

Hourly Observations for October 20, 2015

Temp ( °F °C ) Dew Point ( °F °C ) Humidity (%) Winds ( mph kmh ) Pressure ( in mb ) Visibility ( mi km ) Precip ( " mm )
12:52 am 00:52 Clear 47 8.3 36 2.2 66 66 SSW 7 11 30.35 1028 10 16.0934 0 0
1:52 am 01:52 Clear 46 7.8 37 2.8 71 71 SSW 9 15 30.35 1028 10 16.0934 0 0
2:52 am 02:52 Clear 45 7.2 37 2.8 74 74 SW 5 7 30.35 1028 10 16.0934 0 0
3:52 am 03:52 Mostly Clear 45 7.2 37 2.8 74 74 SSW 8 13 30.34 1027 10 16.0934 0 0
4:52 am 04:52 Mostly Clear 45 7.2 38 3.3 77 77 S 10 17 30.34 1027 10 16.0934 0 0
5:52 am 05:52 Mostly Clear 45 7.2 37 2.8 74 74 SSW 9 15 30.34 1027 10 16.0934 0 0
6:52 am 06:52 Mostly Clear 44 6.7 37 2.8 76 76 SSW 8 13 30.33 1027 10 16.0934 0 0
7:52 am 07:52 Partly Cloudy 45 7.2 38 3.3 77 77 SSW 8 13 30.34 1028 10 16.0934 0 0
8:52 am 08:52 Partly Cloudy 48 8.9 38 3.3 68 68 SSW 7 11 30.36 1028 10 16.0934 0 0
9:52 am 09:52 Mostly Cloudy 51 10.6 38 3.3 61 61 SSW 10 17 30.36 1028 10 16.0934 0 0
10:52 am 10:52 Mostly Cloudy 53 11.7 41 5 64 64 SSE 5 7 30.36 1028 10 16.0934 0 0
11:52 am 11:52 Mostly Cloudy 56 13.3 42 5.6 60 60 S 6 9 30.35 1028 10 16.0934 0 0
12:52 pm 12:52 Cloudy 61 16.1 43 6.1 52 52 S 9 15 30.33 1027 10 16.0934 0 0
1:52 pm 13:52 Cloudy 63 17.2 42 5.6 47 47 SSE 8 13 30.3 1026 10 16.0934 0 0
2:52 pm 14:52 Cloudy 65 18.3 43 6.1 45 45 S 6 9 30.28 1026 10 16.0934 0 0
3:52 pm 15:52 Mostly Cloudy 67 19.4 45 7.2 45 45 S 7 11 30.27 1025 10 16.0934 0 0
4:52 pm 16:52 Partly Cloudy 66 18.9 45 7.2 47 47 S 7 11 30.27 1025 10 16.0934 0 0
5:52 pm 17:52 Partly Cloudy 63 17.2 47 8.3 56 56 S 7 11 30.27 1025 10 16.0934 0 0
6:52 pm 18:52 Mostly Clear 63 17.2 44 6.7 50 50 Calm 30.28 1025 10 16.0934 0 0
7:52 pm 19:52 Mostly Clear 58 14.4 47 8.3 67 67 S 5 7 30.28 1026 10 16.0934 0 0
8:52 pm 20:52 Mostly Clear 56 13.3 50 10 81 81 S 6 9 30.29 1026 10 16.0934 0 0
9:52 pm 21:52 Clear 54 12.2 51 10.6 90 90 S 6 9 30.29 1026 10 16.0934 0 0
10:52 pm 22:52 Mostly Clear 54 12.2 49 9.4 83 83 SSW 5 7 30.29 1026 10 16.0934 0 0
11:52 pm 23:52 Mostly Clear 54 12.2 46 7.8 75 75 Calm 30.3 1026 10 16.0934 0 0

Powered by AerisWeather